Beaufort, SC

11:31 AM EST on February 07, 2016 (GMT -0500)
Beaufort Marine Corps Air Station

Weather History for KNBC - July, 2013

Change the Weather History Date:

Friday, July 12, 2013

  Actual Average Record
Temperature  
Mean Temperature 78 °F -  
Max Temperature 82 °F 91 °F 99 °F (1932)
Min Temperature 75 °F 74 °F 60 °F (1953)
Cooling Degree Days 13    
Growing Degree Days 28 (Base 50)    
Moisture  
Dew Point 73 °F    
Average Humidity 87    
Maximum Humidity 94    
Minimum Humidity 77    
Precipitation  
Precipitation 0.11 in - - ()
Sea Level Pressure  
Sea Level Pressure 29.93 in    
Wind  
Wind Speed 3 mph (SSE)    
Max Wind Speed 9 mph    
Max Gust Speed -    
Visibility 9 miles    
Events Rain , Thunderstorm    
Averages and records for this station are not official NWS values.
T = Trace of Precipitation, MM = Missing Value Source: NWS Daily Summary

Daily Weather History Graph

Daily Weather History Graph

Search for Another Location

Airport or City:

Trip Planner

Search our weather history database for the weather conditions in past years. The results will help you decide how hot, cold, wet, or windy it might be!

Date:

Astronomy

Jul. 12, 2013 Rise Set
Actual Time 6:24 AM EDT 8:32 PM EDT
Civil Twilight 5:56 AM EDT 9:00 PM EDT
Nautical Twilight 5:22 AM EDT 9:34 PM EDT
Astronomical Twilight 4:46 AM EDT 10:10 PM EDT
Moon 10:23 AM EDT (7/12) 11:00 PM EDT (7/12)
Length of Visible Light 15h 03m
Length of Day
14h 07m
Waxing Crescent, 17% of the Moon is Illuminated
Jul 12
Waxing Crescent
Jul 15
First Quarter
Jul 22
Full
Jul 29
Last Quarter
Aug 6
New

Hourly Weather History & Observations

Time (EDT) Temp. Heat Index Dew Point Humidity Pressure Visibility Wind Dir Wind Speed Gust Speed Precip Events Conditions
12:04 AM 75.0 °F - 71.1 °F 87% 29.93 in 10.0 mi WSW 9.2 mph - N/A   Scattered Clouds
12:21 AM 75.9 °F - 71.1 °F 85% 29.93 in 10.0 mi West 5.8 mph - N/A Thunderstorm Thunderstorm
12:43 AM 75.0 °F - 71.1 °F 87% 29.93 in 10.0 mi West 4.6 mph - 0.01 in   Mostly Cloudy
12:56 AM 75.0 °F - 71.1 °F 87% 29.93 in 10.0 mi West 3.5 mph - 0.01 in Rain Light Rain
1:56 AM 75.0 °F - 71.1 °F 87% 29.93 in 10.0 mi NW 3.5 mph - 0.00 in   Overcast
2:56 AM 75.0 °F - 72.0 °F 90% 29.91 in 10.0 mi Calm Calm - N/A   Scattered Clouds
3:56 AM 75.0 °F - 72.0 °F 90% 29.90 in 10.0 mi Calm Calm - N/A   Scattered Clouds
4:46 AM 75.0 °F - 72.0 °F 90% 29.89 in 10.0 mi Calm Calm - N/A   Scattered Clouds
4:56 AM 75.0 °F - 72.0 °F 90% 29.89 in 10.0 mi Calm Calm - N/A   Scattered Clouds
5:30 AM 75.0 °F - 72.0 °F 90% 29.90 in 10.0 mi Calm Calm - N/A Thunderstorm Thunderstorm
5:46 AM 75.0 °F - 72.0 °F 90% 29.90 in 8.0 mi Calm Calm - N/A   Partly Cloudy
5:56 AM 75.0 °F - 72.0 °F 90% 29.91 in 10.0 mi Calm Calm - N/A   Mostly Cloudy
6:10 AM 75.0 °F - 72.0 °F 90% 29.90 in 10.0 mi Calm Calm - N/A   Mostly Cloudy
6:17 AM 75.0 °F - 72.0 °F 90% 29.91 in 9.0 mi Calm Calm - N/A   Mostly Cloudy
6:56 AM 75.9 °F - 73.0 °F 91% 29.91 in 10.0 mi Calm Calm - N/A   Overcast
7:03 AM 75.9 °F - 73.0 °F 91% 29.91 in 10.0 mi Calm Calm - N/A   Overcast
7:39 AM 75.9 °F - 73.0 °F 91% 29.91 in 8.0 mi Calm Calm - 0.01 in Rain Light Rain
7:56 AM 75.9 °F - 73.0 °F 91% 29.92 in 10.0 mi SE 4.6 mph - 0.01 in   Partly Cloudy
8:56 AM 75.9 °F - 73.0 °F 91% 29.93 in 9.0 mi Calm Calm - 0.00 in Rain Light Rain
9:56 AM 77.0 °F - 73.9 °F 90% 29.94 in 3.0 mi Calm Calm - 0.03 in Rain Light Rain
10:03 AM 75.9 °F - 73.9 °F 94% 29.93 in 2.5 mi Calm Calm - 0.01 in Rain Light Rain
10:10 AM 77.0 °F - 73.9 °F 90% 29.93 in 4.0 mi Calm Calm - 0.01 in Rain Light Rain
10:23 AM 77.0 °F - 73.0 °F 88% 29.93 in 4.0 mi Calm Calm - 0.02 in Rain Light Rain
10:56 AM 77.0 °F - 73.9 °F 90% 29.94 in 8.0 mi SW 3.5 mph - 0.02 in Rain Light Rain
11:18 AM 77.0 °F - 73.9 °F 90% 29.94 in 7.0 mi Calm Calm - 0.00 in Rain Light Rain
11:25 AM 77.0 °F - 73.9 °F 90% 29.94 in 7.0 mi WSW 4.6 mph - 0.00 in Rain Light Rain
11:56 AM 78.1 °F - 73.9 °F 87% 29.94 in 4.0 mi SW 3.5 mph - 0.00 in Rain Light Rain
12:03 PM 77.0 °F - 73.9 °F 90% 29.94 in 4.0 mi Calm Calm - 0.00 in Rain Light Rain
12:41 PM 78.1 °F - 73.0 °F 84% 29.93 in 10.0 mi Calm Calm - 0.00 in Rain Light Rain
12:56 PM 79.0 °F - 73.9 °F 84% 29.94 in 10.0 mi Calm Calm - 0.00 in Rain Light Rain
1:09 PM 78.1 °F - 73.0 °F 84% 29.93 in 10.0 mi Calm Calm - 0.00 in Rain Light Rain
1:17 PM 79.0 °F - 73.0 °F 82% 29.93 in 10.0 mi Calm Calm - 0.00 in Rain Light Rain
1:47 PM 78.1 °F - 73.9 °F 87% 29.93 in 4.0 mi Calm Calm - 0.01 in Rain Light Rain
1:56 PM 79.0 °F - 73.9 °F 84% 29.93 in 6.0 mi Calm Calm - 0.01 in Rain Light Rain
2:22 PM 80.1 °F 84.2 °F 73.0 °F 79% 29.92 in 10.0 mi Calm Calm - 0.00 in   Mostly Cloudy
2:49 PM 80.1 °F 84.5 °F 73.9 °F 81% 29.92 in 9.0 mi NE 5.8 mph - 0.00 in   Overcast
2:56 PM 80.1 °F 84.5 °F 73.9 °F 81% 29.93 in 9.0 mi NE 6.9 mph - 0.00 in   Overcast
3:08 PM 79.0 °F - 73.9 °F 84% 29.93 in 10.0 mi NE 5.8 mph - N/A   Overcast
3:56 PM 81.0 °F 85.8 °F 73.0 °F 77% 29.92 in 10.0 mi NE 3.5 mph - N/A   Mostly Cloudy
4:56 PM 81.0 °F 85.8 °F 73.0 °F 77% 29.91 in 10.0 mi East 4.6 mph - N/A   Mostly Cloudy
5:56 PM 80.1 °F 84.2 °F 73.0 °F 79% 29.91 in 10.0 mi East 4.6 mph - N/A   Mostly Cloudy
6:56 PM 80.1 °F 84.2 °F 73.0 °F 79% 29.91 in 10.0 mi SE 5.8 mph - N/A   Mostly Cloudy
7:56 PM 79.0 °F - 73.0 °F 82% 29.92 in 10.0 mi SSE 3.5 mph - N/A   Mostly Cloudy
8:56 PM 78.1 °F - 71.1 °F 79% 29.95 in 10.0 mi Calm Calm - N/A   Overcast
9:56 PM 78.1 °F - 72.0 °F 81% 29.96 in 10.0 mi South 3.5 mph - N/A   Mostly Cloudy
10:25 PM 77.0 °F - 72.0 °F 84% 29.95 in 10.0 mi SE 5.8 mph - N/A Thunderstorm Thunderstorm
10:45 PM 75.9 °F - 72.0 °F 87% 29.96 in 10.0 mi SSE 4.6 mph - 0.01 in Rain Light Rain
10:56 PM 75.9 °F - 72.0 °F 87% 29.97 in 10.0 mi SSE 5.8 mph - 0.01 in Rain Light Rain
11:56 PM 75.0 °F - 72.0 °F 90% 29.96 in 6.0 mi Variable 3.5 mph - 0.02 in Rain Light Rain